Location: Newark
(25.4297°S, 49.2719°W)
Time: 18:23:09
(UTC+00:00)

Vanguard 1 Rocket - Pass Details

Date: 29 November 2019
Orbit: 650 x 4226 km, 34.3° (Epoch: 09 December)

Event Time Altitude Azimuth Distance (km) Brightness Sun altitude
Rises 11:38:27 0° 344° (NNW) 4,159 10.6 42.7°
Reaches altitude 10° 11:41:21 10° 357° (N) 3,565 10.5 43.3°
Maximum altitude 11:49:10 27° 52° (NE) 3,371 11.3 45.1°
Drops below altitude 10° 12:01:57 10° 102° (ESE) 6,000 12.5 48.0°
Sets 12:08:50 0° 111° (ESE) 7,613 12.7 49.5°
